Tracking 28790 objects as of 19-Apr-2024
HD Live streaming from Space Station
objects crossing your sky now

DELTA 1 DEB

Track DELTA 1 DEB now!
10-day predictions


NORAD ID: 21351
Int'l Code: 1975-052BV
Perigee: 1,098.6 km
Apogee: 1,197.8 km
Inclination: 99.7 °
Period: 108.1 minutes
Semi major axis: 7519 km
RCS: 0.1445 m2 (medium)
Launch date: June 12, 1975
Source: United States (US)
Launch site: AIR FORCE WESTERN TEST RANGE (AFWTR)

Note: This is SATELLITE DEBRIS
Your satellite tracking list
Your tracking list is empty




NASA's NSSDC Master Catalog

Two Line Element Set (TLE):
1 21351U 75052BV  24109.88082431  .00000083  00000-0  25598-3 0  9994
2 21351  99.7352 261.3085 0065957  49.9426  76.4653 13.31517355599479
Source of the keplerian elements: AFSPC